, AK

(GMT )
Denali Park

Weather History for PAIN - February, 2014

Change the Weather History Date:

Sunday, February 9, 2014

  Actual Average Record
Temperature  
Mean Temperature -17 °F -  
Max Temperature -2 °F 17 °F 44 °F (2012)
Min Temperature -32 °F -2 °F -41 °F (1979)
Degree Days  
Heating Degree Days 82    
Moisture  
Dew Point -27 °F    
Average Humidity 77    
Maximum Humidity 92    
Minimum Humidity 65    
Precipitation  
Precipitation 0.00 in - - ()
Sea Level Pressure  
Sea Level Pressure 30.16 in    
Wind  
Wind Speed 1 mph (North)    
Max Wind Speed 12 mph    
Max Gust Speed 16 mph    
Visibility 10 miles    
Events      
Averages and records for this station are not official NWS values.
T = Trace of Precipitation, MM = Missing Value Source: NWS Daily Summary

Daily Weather History Graph

Daily Weather History Graph

Search for Another Location

Airport or City:

Trip Planner

Search our weather history database for the weather conditions in past years. The results will help you decide how hot, cold, wet, or windy it might be!

Date:

Astronomy

Feb. 09, 2014 Rise Set
Actual Time 9:07 AM AKST 5:13 PM AKST
Civil Twilight 8:15 AM AKST 6:05 PM AKST
Nautical Twilight 7:19 AM AKST 7:01 PM AKST
Astronomical Twilight 6:24 AM AKST 7:56 PM AKST
Moon 12:17 PM AKST (2/9) 6:04 AM AKST (2/9)
Length of Visible Light 9h 50m
Length of Day
8h 05m
Waxing Gibbous, 78% of the Moon is Illuminated
Feb 9
Waxing Gibbous
Feb 14
Full
Feb 22
Last Quarter
Feb 28
New
Mar 8
First Quarter

Hourly Weather History & Observations

Time (AKST) Temp. Windchill Dew Point Humidity Pressure Visibility Wind Dir Wind Speed Gust Speed Precip Events Conditions
12:16 AM -23.8 °F - -27.4 °F 83% - 10.0 mi Calm Calm - N/A   Clear
12:36 AM -25.6 °F - -29.2 °F 83% - 10.0 mi Calm Calm - N/A   Clear
12:56 AM -25.6 °F - -29.2 °F 83% - 10.0 mi Calm Calm - N/A   Clear
1:16 AM -25.6 °F - -29.2 °F 83% - 10.0 mi Calm Calm - N/A   Clear
1:36 AM -25.6 °F - -31.0 °F 76% - 10.0 mi Calm Calm - N/A   Clear
1:56 AM -27.4 °F - -32.8 °F 75% - 10.0 mi Calm Calm - N/A   Clear
2:16 AM -27.4 °F - -31.0 °F 83% - 10.0 mi Calm Calm - N/A   Clear
2:36 AM -25.6 °F - -31.0 °F 76% - 10.0 mi Calm Calm - N/A   Clear
2:56 AM -27.4 °F - -32.8 °F 75% - 10.0 mi Calm Calm - N/A   Clear
3:16 AM -27.4 °F - -32.8 °F 75% - 10.0 mi Calm Calm - N/A   Clear
3:36 AM -27.4 °F - -32.8 °F 75% - 10.0 mi Calm Calm - N/A   Clear
3:56 AM -27.4 °F - -32.8 °F 75% - 10.0 mi Calm Calm - N/A   Clear
4:16 AM -27.4 °F - -34.6 °F 69% - 10.0 mi Calm Calm - N/A   Clear
4:36 AM -29.2 °F - -34.6 °F 75% - 10.0 mi Calm Calm - N/A   Clear
4:56 AM -29.2 °F - -34.6 °F 75% - 10.0 mi Calm Calm - N/A   Clear
5:16 AM -29.2 °F - -34.6 °F 75% - 10.0 mi Calm Calm - N/A   Clear
5:36 AM -29.2 °F - -36.4 °F 68% - 10.0 mi Calm Calm - N/A   Clear
5:56 AM -31.0 °F - -36.4 °F 75% - 10.0 mi Calm Calm - N/A   Clear
6:16 AM -29.2 °F - -34.6 °F 75% - 10.0 mi Calm Calm - N/A   Clear
6:36 AM -31.0 °F - -36.4 °F 75% - 10.0 mi Calm Calm - N/A   Clear
6:56 AM -32.8 °F - -36.4 °F 83% - 10.0 mi Calm Calm - N/A   Clear
7:16 AM -31.0 °F - -36.4 °F 75% - 10.0 mi Calm Calm - N/A   Clear
7:36 AM -32.8 °F - -36.4 °F 83% - 10.0 mi Calm Calm - N/A   Clear
7:56 AM -32.8 °F - -36.4 °F 83% - 10.0 mi Calm Calm - N/A   Clear
8:16 AM -32.8 °F - -38.2 °F 75% - 10.0 mi Calm Calm - N/A   Clear
8:36 AM -32.8 °F - -38.2 °F 75% - 10.0 mi Calm Calm - N/A   Clear
8:56 AM -32.8 °F - -36.4 °F 83% - 10.0 mi Calm Calm - N/A   Clear
9:16 AM -32.8 °F - -38.2 °F 75% - 10.0 mi Calm Calm - N/A   Clear
9:36 AM -32.8 °F - -38.2 °F 75% - 10.0 mi Calm Calm - N/A   Clear
9:56 AM -32.8 °F - -36.4 °F 83% - 10.0 mi Calm Calm - N/A   Clear
10:16 AM -29.2 °F - -32.8 °F 83% - 10.0 mi Calm Calm - N/A   Clear
10:36 AM -25.6 °F - -31.0 °F 76% - 10.0 mi Calm Calm - N/A   Clear
10:56 AM -23.8 °F - -29.2 °F 76% - 10.0 mi Calm Calm - N/A   Clear
11:16 AM -20.2 °F - -25.6 °F 76% - 10.0 mi Calm Calm - N/A   Clear
11:36 AM -18.4 °F - -25.6 °F 70% - 10.0 mi Calm Calm - N/A   Clear
11:56 AM -16.6 °F - -22.0 °F 76% - 10.0 mi Calm Calm - N/A   Clear
12:16 PM -13.0 °F - -20.2 °F 70% - 10.0 mi Calm Calm - N/A   Clear
12:36 PM -11.2 °F - -18.4 °F 70% - 10.0 mi Calm Calm - N/A   Clear
12:56 PM -9.4 °F - -16.6 °F 71% - 10.0 mi Calm Calm - N/A   Clear
1:16 PM -7.6 °F - -16.6 °F 65% - 10.0 mi Calm Calm - N/A   Clear
1:36 PM -7.6 °F - -14.8 °F 71% - 10.0 mi Calm Calm - N/A   Clear
1:56 PM -5.8 °F - -11.2 °F 77% 30.19 in 10.0 mi Calm Calm - N/A   Clear
2:16 PM -2.2 °F -10.4 °F -9.4 °F 71% 30.18 in 10.0 mi NE 3.5 mph - N/A   Clear
2:36 PM -2.2 °F -14.2 °F -9.4 °F 71% 30.17 in 10.0 mi NNE 5.8 mph - N/A   Clear
2:56 PM -2.2 °F -16.8 °F -9.4 °F 71% 30.17 in 10.0 mi North 8.1 mph - N/A   Clear
3:16 PM -2.2 °F -12.5 °F -7.6 °F 78% 30.16 in 10.0 mi NE 4.6 mph - N/A   Clear
3:36 PM -2.2 °F -15.6 °F -7.6 °F 78% 30.16 in 10.0 mi NNE 6.9 mph - N/A   Clear
3:56 PM -2.2 °F -15.6 °F -9.4 °F 71% 30.15 in 10.0 mi North 6.9 mph - N/A   Clear
4:16 PM -5.8 °F -24.4 °F -9.4 °F 84% 30.15 in 10.0 mi North 11.5 mph 16.1 mph N/A   Clear
4:36 PM -5.8 °F -14.5 °F -9.4 °F 84% 30.15 in 10.0 mi WNW 3.5 mph - N/A   Clear
4:56 PM -7.6 °F -20.6 °F -9.4 °F 92% 30.15 in 10.0 mi North 5.8 mph - N/A   Clear
5:16 PM -7.6 °F - -11.2 °F 84% 30.15 in 10.0 mi Calm Calm - N/A   Clear
5:36 PM -9.4 °F -18.6 °F -13.0 °F 84% 30.15 in 10.0 mi NNE 3.5 mph - N/A   Clear
5:56 PM -9.4 °F -20.9 °F -13.0 °F 84% 30.15 in 10.0 mi NE 4.6 mph - N/A   Clear
6:16 PM -13.0 °F -22.7 °F -18.4 °F 77% 30.15 in 10.0 mi West 3.5 mph - N/A   Clear
6:36 PM -14.8 °F - -20.2 °F 77% 30.15 in 10.0 mi Calm Calm - N/A   Clear
6:56 PM -16.6 °F - -22.0 °F 76% 30.16 in 10.0 mi Calm Calm - N/A   Clear
7:16 PM -18.4 °F - -23.8 °F 76% 30.16 in 10.0 mi Calm Calm - N/A   Clear
7:36 PM -20.2 °F - -25.6 °F 76% 30.16 in 10.0 mi Calm Calm - N/A   Clear
7:56 PM -20.2 °F - -25.6 °F 76% 30.15 in 10.0 mi Calm Calm - N/A   Clear
8:16 PM -22.0 °F - -25.6 °F 83% 30.15 in 10.0 mi Calm Calm - N/A   Clear
8:36 PM -22.0 °F - -27.4 °F 76% 30.15 in 10.0 mi Calm Calm - N/A   Clear
8:56 PM -23.8 °F - -27.4 °F 83% 30.15 in 10.0 mi Calm Calm - N/A   Clear
9:16 PM -23.8 °F - -27.4 °F 83% - 10.0 mi Calm Calm - N/A   Clear
9:36 PM -23.8 °F - -29.2 °F 76% - 10.0 mi Calm Calm - N/A   Clear
9:56 PM -25.6 °F - -31.0 °F 76% - 10.0 mi Calm Calm - N/A   Clear
10:16 PM -25.6 °F - -31.0 °F 76% - 10.0 mi Calm Calm - N/A   Clear
10:36 PM -27.4 °F - -31.0 °F 83% - 10.0 mi Calm Calm - N/A   Clear
10:56 PM -27.4 °F - -32.8 °F 75% - 10.0 mi Calm Calm - N/A   Clear
11:16 PM -27.4 °F - -34.6 °F 69% - 10.0 mi Calm Calm - N/A   Clear
11:36 PM -29.2 °F - -34.6 °F 75% - 10.0 mi Calm Calm - N/A   Clear
11:56 PM -29.2 °F - -34.6 °F 75% - 10.0 mi Calm Calm - N/A   Clear